Time,TemperatureF,DewpointF,PressureIn,WindDirection,WindDirectionDegrees,WindSpeedMPH,WindSpeedGustMPH,Humidity,HourlyPrecipIn,Conditions,Clouds,dailyrainin,SoftwareType,DateUTC
2013-03-06 00:07:00,35.2,28.0,29.84,WNW,300,3.0,-999.0,75,-99.99,,,0.00,weatherlink.com 1.10,2013-03-06 05:07:00,
2013-03-06 00:22:00,35.2,28.0,29.84,WNW,303,0.0,-999.0,74,-99.99,,,0.00,weatherlink.com 1.10,2013-03-06 05:22:00,
2013-03-06 00:37:00,35.3,28.0,29.84,WSW,249,3.0,-999.0,75,-99.99,,,0.00,weatherlink.com 1.10,2013-03-06 05:37:00,
2013-03-06 00:52:00,34.6,29.0,29.84,SW,232,3.0,-999.0,80,-99.99,,,0.00,weatherlink.com 1.10,2013-03-06 05:52:00,
2013-03-06 01:07:00,34.0,28.0,29.84,SW,222,3.0,-999.0,78,-99.99,,,0.00,weatherlink.com 1.10,2013-03-06 06:07:00,
2013-03-06 01:22:00,33.8,27.0,29.85,NW,318,6.0,-999.0,75,-99.99,,,0.00,weatherlink.com 1.10,2013-03-06 06:22:00,
2013-03-06 01:37:00,32.8,26.0,29.86,NW,326,2.0,-999.0,76,-99.99,,,0.00,weatherlink.com 1.10,2013-03-06 06:37:00,
2013-03-06 01:52:00,32.5,25.0,29.86,North,351,0.0,-999.0,74,-99.99,,,0.00,weatherlink.com 1.10,2013-03-06 06:52:00,
2013-03-06 02:07:00,32.4,25.0,29.87,WSW,250,5.0,-999.0,73,-99.99,,,0.00,weatherlink.com 1.10,2013-03-06 07:07:00,
2013-03-06 02:22:00,32.2,24.0,29.87,WSW,248,0.0,-999.0,73,-99.99,,,0.00,weatherlink.com 1.10,2013-03-06 07:22:00,
2013-03-06 02:37:00,32.2,25.0,29.86,WSW,245,0.0,-999.0,74,-99.99,,,0.00,weatherlink.com 1.10,2013-03-06 07:37:00,
2013-03-06 02:52:00,32.4,25.0,29.86,SW,236,6.0,-999.0,73,-99.99,,,0.00,weatherlink.com 1.10,2013-03-06 07:52:00,
2013-03-06 03:07:00,32.4,26.0,29.86,WSW,247,0.0,-999.0,76,-99.99,,,0.00,weatherlink.com 1.10,2013-03-06 08:07:00,
2013-03-06 03:22:00,32.1,26.0,29.86,WSW,240,0.0,-999.0,79,-99.99,,,0.00,weatherlink.com 1.10,2013-03-06 08:22:00,
2013-03-06 03:37:00,31.9,25.0,29.86,West,265,1.0,-999.0,77,-99.99,,,0.00,weatherlink.com 1.10,2013-03-06 08:37:00,
2013-03-06 03:52:00,31.9,25.0,29.85,WSW,250,0.0,-999.0,76,-99.99,,,0.00,weatherlink.com 1.10,2013-03-06 08:52:00,
2013-03-06 04:07:00,31.9,25.0,29.86,NW,306,0.0,-999.0,77,-99.99,,,0.00,weatherlink.com 1.10,2013-03-06 09:07:00,
2013-03-06 04:22:00,31.9,25.0,29.86,West,259,2.0,-999.0,77,-99.99,,,0.00,weatherlink.com 1.10,2013-03-06 09:22:00,
2013-03-06 05:22:00,32.5,25.0,29.88,WNW,298,2.0,-999.0,75,-99.99,,,0.00,weatherlink.com 1.10,2013-03-06 10:22:00,
2013-03-06 05:37:00,32.5,26.0,29.89,West,259,1.0,-999.0,76,-99.99,,,0.00,weatherlink.com 1.10,2013-03-06 10:37:00,
2013-03-06 05:52:00,32.4,26.0,29.89,West,275,2.0,-999.0,77,-99.99,,,0.00,weatherlink.com 1.10,2013-03-06 10:52:00,
2013-03-06 06:07:00,32.4,26.0,29.90,WSW,238,0.0,-999.0,76,-99.99,,,0.00,weatherlink.com 1.10,2013-03-06 11:07:00,
2013-03-06 06:22:00,32.4,25.0,29.90,SW,224,2.0,-999.0,75,-99.99,,,0.00,weatherlink.com 1.10,2013-03-06 11:22:00,
2013-03-06 06:37:00,32.5,26.0,29.91,WSW,252,0.0,-999.0,76,-99.99,,,0.00,weatherlink.com 1.10,2013-03-06 11:37:00,
2013-03-06 06:52:00,32.5,25.0,29.92,West,264,0.0,-999.0,75,-99.99,,,0.00,weatherlink.com 1.10,2013-03-06 11:52:00,
2013-03-06 07:07:00,32.7,26.0,29.93,West,259,3.0,-999.0,75,-99.99,,,0.00,weatherlink.com 1.10,2013-03-06 12:07:00,
2013-03-06 07:22:00,32.7,26.0,29.93,NNW,344,1.0,-999.0,75,-99.99,,,0.00,weatherlink.com 1.10,2013-03-06 12:22:00,
2013-03-06 07:37:00,32.7,26.0,29.94,SW,233,3.0,-999.0,76,-99.99,,,0.00,weatherlink.com 1.10,2013-03-06 12:37:00,
2013-03-06 07:52:00,32.7,26.0,29.95,WSW,245,3.0,-999.0,76,-99.99,,,0.00,weatherlink.com 1.10,2013-03-06 12:52:00,
2013-03-06 08:07:00,32.7,26.0,29.95,West,261,3.0,-999.0,76,-99.99,,,0.00,weatherlink.com 1.10,2013-03-06 13:07:00,
2013-03-06 08:22:00,32.8,26.0,29.97,WSW,242,0.0,-999.0,77,-99.99,,,0.00,weatherlink.com 1.10,2013-03-06 13:22:00,
2013-03-06 08:37:00,32.8,27.0,29.98,WNW,296,0.0,-999.0,78,-99.99,,,0.00,weatherlink.com 1.10,2013-03-06 13:37:00,
2013-03-06 08:52:00,32.8,27.0,29.99,West,269,0.0,-999.0,78,-99.99,,,0.00,weatherlink.com 1.10,2013-03-06 13:52:00,
2013-03-06 09:22:00,32.8,27.0,30.01,WNW,295,0.0,-999.0,79,-99.99,,,0.00,weatherlink.com 1.10,2013-03-06 14:22:00,
2013-03-06 09:37:00,32.9,27.0,30.02,WNW,290,0.0,-999.0,79,-99.99,,,0.00,weatherlink.com 1.10,2013-03-06 14:37:00,
2013-03-06 09:52:00,33.1,27.0,30.03,WSW,257,4.0,-999.0,78,-99.99,,,0.00,weatherlink.com 1.10,2013-03-06 14:52:00,
2013-03-06 10:07:00,33.5,28.0,30.03,WNW,296,3.0,-999.0,79,-99.99,,,0.00,weatherlink.com 1.10,2013-03-06 15:07:00,
2013-03-06 10:22:00,34.1,28.0,30.04,NNW,347,3.0,-999.0,77,-99.99,,,0.00,weatherlink.com 1.10,2013-03-06 15:22:00,
2013-03-06 10:37:00,34.4,28.0,30.05,WNW,284,9.0,-999.0,78,-99.99,,,0.00,weatherlink.com 1.10,2013-03-06 15:37:00,
2013-03-06 10:52:00,34.7,28.0,30.05,WNW,297,3.0,-999.0,76,-99.99,,,0.00,weatherlink.com 1.10,2013-03-06 15:52:00,
2013-03-06 11:07:00,34.9,28.0,30.06,NW,323,2.0,-999.0,75,-99.99,,,0.00,weatherlink.com 1.10,2013-03-06 16:07:00,
2013-03-06 11:22:00,34.9,27.0,30.06,West,267,5.0,-999.0,74,-99.99,,,0.00,weatherlink.com 1.10,2013-03-06 16:22:00,
2013-03-06 11:37:00,34.9,28.0,30.07,North,360,3.0,-999.0,75,-99.99,,,0.00,weatherlink.com 1.10,2013-03-06 16:37:00,
2013-03-06 11:52:00,34.9,27.0,30.07,NW,311,0.0,-999.0,74,-99.99,,,0.00,weatherlink.com 1.10,2013-03-06 16:52:00,
2013-03-06 12:07:00,34.9,27.0,30.08,NW,309,6.0,-999.0,74,-99.99,,,0.00,weatherlink.com 1.10,2013-03-06 17:07:00,
2013-03-06 12:23:00,35.0,28.0,30.09,WNW,289,3.0,-999.0,74,-99.99,,,0.01,weatherlink.com 1.10,2013-03-06 17:23:00,
2013-03-06 12:38:00,34.9,27.0,30.09,NNW,331,4.0,-999.0,73,-99.99,,,0.01,weatherlink.com 1.10,2013-03-06 17:38:00,
2013-03-06 12:53:00,34.9,28.0,30.09,NW,315,2.0,-999.0,75,-99.99,,,0.01,weatherlink.com 1.10,2013-03-06 17:53:00,
2013-03-06 13:08:00,34.9,27.0,30.10,NW,307,5.0,-999.0,74,-99.99,,,0.01,weatherlink.com 1.10,2013-03-06 18:08:00,
2013-03-06 13:23:00,34.7,28.0,30.10,NNW,332,1.0,-999.0,77,-99.99,,,0.01,weatherlink.com 1.10,2013-03-06 18:23:00,
2013-03-06 13:38:00,34.9,28.0,30.10,NNW,336,0.0,-999.0,77,-99.99,,,0.01,weatherlink.com 1.10,2013-03-06 18:38:00,
2013-03-06 13:53:00,34.7,28.0,30.10,NW,326,5.0,-999.0,77,-99.99,,,0.01,weatherlink.com 1.10,2013-03-06 18:53:00,
2013-03-06 14:08:00,34.7,28.0,30.10,WNW,294,1.0,-999.0,76,-99.99,,,0.01,weatherlink.com 1.10,2013-03-06 19:08:00,
2013-03-06 14:23:00,34.9,28.0,30.11,North,360,0.0,-999.0,76,-99.99,,,0.01,weatherlink.com 1.10,2013-03-06 19:23:00,
2013-03-06 14:38:00,35.0,28.0,30.11,North,360,4.0,-999.0,76,-99.99,,,0.02,weatherlink.com 1.10,2013-03-06 19:38:00,
2013-03-06 14:53:00,35.2,28.0,30.11,NW,325,0.0,-999.0,76,-99.99,,,0.02,weatherlink.com 1.10,2013-03-06 19:53:00,
2013-03-06 15:08:00,35.2,28.0,30.12,WNW,282,0.0,-999.0,75,-99.99,,,0.02,weatherlink.com 1.10,2013-03-06 20:08:00,
2013-03-06 15:23:00,35.3,28.0,30.13,ENE,69,0.0,-999.0,76,-99.99,,,0.02,weatherlink.com 1.10,2013-03-06 20:23:00,
2013-03-06 15:38:00,35.5,29.0,30.14,West,277,4.0,-999.0,76,-99.99,,,0.02,weatherlink.com 1.10,2013-03-06 20:38:00,
2013-03-06 16:08:00,35.2,28.0,30.15,NNW,347,4.0,-999.0,75,-99.99,,,0.02,weatherlink.com 1.10,2013-03-06 21:08:00,
2013-03-06 16:23:00,35.2,28.0,30.16,SW,223,0.0,-999.0,75,-99.99,,,0.02,weatherlink.com 1.10,2013-03-06 21:23:00,
2013-03-06 16:38:00,35.2,28.0,30.16,WNW,289,0.0,-999.0,76,-99.99,,,0.02,weatherlink.com 1.10,2013-03-06 21:38:00,
2013-03-06 16:53:00,35.3,29.0,30.16,NNW,337,2.0,-999.0,77,-99.99,,,0.02,weatherlink.com 1.10,2013-03-06 21:53:00,
2013-03-06 17:08:00,35.3,29.0,30.17,NW,311,4.0,-999.0,77,-99.99,,,0.02,weatherlink.com 1.10,2013-03-06 22:08:00,
2013-03-06 17:23:00,35.3,29.0,30.17,NNW,336,0.0,-999.0,77,-99.99,,,0.02,weatherlink.com 1.10,2013-03-06 22:23:00,
2013-03-06 17:38:00,35.3,28.0,30.18,NNE,24,0.0,-999.0,75,-99.99,,,0.02,weatherlink.com 1.10,2013-03-06 22:38:00,
2013-03-06 17:53:00,35.3,28.0,30.18,NW,319,0.0,-999.0,76,-99.99,,,0.02,weatherlink.com 1.10,2013-03-06 22:53:00,
2013-03-06 18:08:00,35.2,28.0,30.18,WNW,294,0.0,-999.0,76,-99.99,,,0.02,weatherlink.com 1.10,2013-03-06 23:08:00,
2013-03-06 18:23:00,35.2,29.0,30.19,WNW,296,0.0,-999.0,77,-99.99,,,0.02,weatherlink.com 1.10,2013-03-06 23:23:00,
2013-03-06 18:38:00,35.2,29.0,30.19,NW,312,0.0,-999.0,77,-99.99,,,0.02,weatherlink.com 1.10,2013-03-06 23:38:00,
2013-03-06 18:53:00,35.2,29.0,30.20,NW,309,0.0,-999.0,78,-99.99,,,0.02,weatherlink.com 1.10,2013-03-06 23:53:00,
2013-03-06 19:08:00,35.2,28.0,30.20,NW,309,1.0,-999.0,76,-99.99,,,0.02,weatherlink.com 1.10,2013-03-07 00:08:00,
2013-03-06 19:23:00,35.0,28.0,30.20,NW,309,0.0,-999.0,77,-99.99,,,0.02,weatherlink.com 1.10,2013-03-07 00:23:00,
2013-03-06 19:38:00,35.0,29.0,30.21,NW,306,0.0,-999.0,78,-99.99,,,0.02,weatherlink.com 1.10,2013-03-07 00:38:00,
2013-03-06 19:53:00,34.9,29.0,30.21,NNE,29,0.0,-999.0,78,-99.99,,,0.02,weatherlink.com 1.10,2013-03-07 00:53:00,
2013-03-06 20:08:00,34.7,29.0,30.21,NE,39,0.0,-999.0,78,-99.99,,,0.02,weatherlink.com 1.10,2013-03-07 01:08:00,
2013-03-06 20:23:00,34.6,29.0,30.21,WNW,298,0.0,-999.0,80,-99.99,,,0.02,weatherlink.com 1.10,2013-03-07 01:23:00,
2013-03-06 20:38:00,34.6,29.0,30.21,WNW,296,0.0,-999.0,80,-99.99,,,0.02,weatherlink.com 1.10,2013-03-07 01:38:00,
2013-03-06 20:53:00,34.6,29.0,30.22,WNW,300,0.0,-999.0,79,-99.99,,,0.02,weatherlink.com 1.10,2013-03-07 01:53:00,
2013-03-06 21:08:00,34.4,29.0,30.22,NNE,30,0.0,-999.0,79,-99.99,,,0.02,weatherlink.com 1.10,2013-03-07 02:08:00,
2013-03-06 21:23:00,34.4,29.0,30.22,NW,304,0.0,-999.0,80,-99.99,,,0.02,weatherlink.com 1.10,2013-03-07 02:23:00,
2013-03-06 21:38:00,34.4,29.0,30.22,NW,308,0.0,-999.0,80,-99.99,,,0.02,weatherlink.com 1.10,2013-03-07 02:38:00,
2013-03-06 21:53:00,34.4,29.0,30.23,NNW,341,0.0,-999.0,80,-99.99,,,0.02,weatherlink.com 1.10,2013-03-07 02:53:00,
2013-03-06 22:09:00,34.3,28.0,30.23,North,9,3.0,-999.0,79,-99.99,,,0.02,weatherlink.com 1.10,2013-03-07 03:09:00,
2013-03-06 22:23:00,34.3,29.0,30.23,NE,46,0.0,-999.0,80,-99.99,,,0.02,weatherlink.com 1.10,2013-03-07 03:23:00,
2013-03-06 22:38:00,34.1,29.0,30.22,NNW,340,0.0,-999.0,80,-99.99,,,0.02,weatherlink.com 1.10,2013-03-07 03:38:00,
2013-03-06 22:53:00,34.1,29.0,30.23,North,360,0.0,-999.0,80,-99.99,,,0.02,weatherlink.com 1.10,2013-03-07 03:53:00,
2013-03-06 23:08:00,34.0,28.0,30.21,North,360,0.0,-999.0,80,-99.99,,,0.02,weatherlink.com 1.10,2013-03-07 04:08:00,
2013-03-06 23:23:00,34.0,28.0,30.21,NW,319,0.0,-999.0,80,-99.99,,,0.02,weatherlink.com 1.10,2013-03-07 04:23:00,
2013-03-06 23:38:00,33.8,28.0,30.21,North,5,0.0,-999.0,80,-99.99,,,0.02,weatherlink.com 1.10,2013-03-07 04:38:00,
2013-03-06 23:53:00,33.8,29.0,30.20,NNW,337,0.0,-999.0,82,-99.99,,,0.02,weatherlink.com 1.10,2013-03-07 04:53:00,